{"data":{"norad_id":68858,"epoch":"2026-09-19T11:24:13.139712Z","epoch_age_seconds":104118,"freshness":"FRESH","line1":"1 68858U 26094V   26262.47515208  .00012702  00000+0  39511-3 0  9999","line2":"2 68858  97.2842 275.6593 0001054 101.6142 258.5219 15.33445208 22507","mean_motion":15.33445208,"eccentricity":0.0001054,"inclination_deg":97.2842,"raan_deg":275.6593,"arg_perigee_deg":101.6142,"mean_anomaly_deg":258.5219,"bstar":0.00039511,"rev_number":2250,"period_min":93.906191919183,"perigee_km":464.82123179138,"apogee_km":466.2638794417,"semimajor_km":6843.6795556165,"source":"CELESTRAK","updated_at":"2026-09-20T09:00:44.044256Z"}}